Time,TemperatureF,DewpointF,PressureIn,WindDirection,WindDirectionDegrees,WindSpeedMPH,WindSpeedGustMPH,Humidity,HourlyPrecipIn,Conditions,Clouds,dailyrainin,SoftwareType,DateUTC
2013-09-28 00:13:00,81.0,71.0,29.51,SE,138,9.0,18.0,71,0.00,,,0.00,,2013-09-28 04:13:00,
2013-09-28 00:25:00,80.0,70.0,29.52,East,101,6.0,13.0,72,0.00,,,0.00,,2013-09-28 04:25:00,
2013-09-28 00:43:00,80.0,71.0,29.53,SE,134,7.0,15.0,73,0.00,,,0.00,,2013-09-28 04:43:00,
2013-09-28 00:54:00,80.0,71.0,29.52,SSE,151,5.0,14.0,74,0.00,,,0.00,,2013-09-28 04:54:00,
2013-09-28 01:13:00,79.0,70.0,29.53,SE,146,5.0,10.0,75,0.00,,,0.00,,2013-09-28 05:13:00,
2013-09-28 01:22:00,79.0,70.0,29.53,ESE,103,6.0,10.0,75,0.00,,,0.00,,2013-09-28 05:22:00,
2013-09-28 01:53:00,79.0,71.0,29.53,ESE,106,6.0,14.0,76,0.00,,,0.00,,2013-09-28 05:53:00,
2013-09-28 02:13:00,79.0,71.0,29.52,ESE,120,7.0,11.0,77,0.00,,,0.00,,2013-09-28 06:13:00,
2013-09-28 02:22:00,78.0,71.0,29.53,South,182,6.0,13.0,78,0.00,,,0.00,,2013-09-28 06:22:00,
2013-09-28 02:42:00,78.0,71.0,29.53,SE,140,8.0,16.0,79,0.00,,,0.00,,2013-09-28 06:42:00,
2013-09-28 02:52:00,78.0,71.0,29.52,SSE,150,5.0,15.0,79,0.00,,,0.00,,2013-09-28 06:52:00,
2013-09-28 03:12:00,78.0,71.0,29.52,ESE,121,6.0,15.0,80,0.00,,,0.00,,2013-09-28 07:12:00,
2013-09-28 03:22:00,78.0,72.0,29.52,East,96,6.0,15.0,81,0.00,,,0.00,,2013-09-28 07:22:00,
2013-09-28 03:42:00,78.0,72.0,29.52,ESE,110,7.0,11.0,81,0.00,,,0.00,,2013-09-28 07:42:00,
2013-09-28 03:52:00,78.0,72.0,29.52,South,180,6.0,12.0,81,0.00,,,0.00,,2013-09-28 07:52:00,
2013-09-28 04:13:00,78.0,72.0,29.52,South,175,7.0,13.0,82,0.00,,,0.00,,2013-09-28 08:13:00,
2013-09-28 04:21:00,78.0,72.0,29.52,SE,137,5.0,12.0,82,0.00,,,0.00,,2013-09-28 08:21:00,
2013-09-28 04:43:00,78.0,72.0,29.52,SSE,147,4.0,10.0,82,0.00,,,0.00,,2013-09-28 08:43:00,
2013-09-28 04:53:00,78.0,72.0,29.51,SE,138,5.0,11.0,83,0.00,,,0.00,,2013-09-28 08:53:00,
2013-09-28 05:11:00,78.0,72.0,29.51,SE,124,6.0,15.0,83,0.00,,,0.00,,2013-09-28 09:11:00,
2013-09-28 05:22:00,78.0,72.0,29.52,SE,130,7.0,21.0,83,0.00,,,0.00,,2013-09-28 09:22:00,
2013-09-28 05:54:00,78.0,73.0,29.51,SSE,163,10.0,17.0,84,0.00,,,0.00,,2013-09-28 09:54:00,
2013-09-28 06:13:00,78.0,73.0,29.51,SSE,160,6.0,16.0,84,0.00,,,0.00,,2013-09-28 10:13:00,
2013-09-28 06:22:00,78.0,73.0,29.52,ESE,117,6.0,13.0,84,0.00,,,0.00,,2013-09-28 10:22:00,
2013-09-28 06:43:00,78.0,73.0,29.52,ESE,117,6.0,12.0,84,0.00,,,0.00,,2013-09-28 10:43:00,
2013-09-28 06:52:00,78.0,73.0,29.53,East,94,2.0,12.0,84,0.00,,,0.00,,2013-09-28 10:52:00,
2013-09-28 07:12:00,78.0,73.0,29.54,SE,131,1.0,9.0,84,0.00,,,0.00,,2013-09-28 11:12:00,
2013-09-28 07:22:00,77.0,72.0,29.54,SE,132,5.0,14.0,84,0.00,,,0.00,,2013-09-28 11:22:00,
2013-09-28 07:43:00,77.0,72.0,29.54,SSE,148,5.0,10.0,85,0.00,,,0.00,,2013-09-28 11:43:00,
2013-09-28 07:52:00,77.0,72.0,29.54,SE,140,4.0,14.0,85,0.00,,,0.00,,2013-09-28 11:52:00,
2013-09-28 08:12:00,77.0,72.0,29.54,ESE,109,6.0,11.0,86,0.00,,,0.00,,2013-09-28 12:12:00,
2013-09-28 08:22:00,77.0,72.0,29.54,ESE,115,5.0,13.0,86,0.00,,,0.00,,2013-09-28 12:22:00,
2013-09-28 08:42:00,77.0,72.0,29.54,SSE,150,6.0,14.0,86,0.00,,,0.00,,2013-09-28 12:42:00,
2013-09-28 08:52:00,77.0,72.0,29.55,East,95,4.0,11.0,86,0.00,,,0.00,,2013-09-28 12:52:00,
2013-09-28 09:12:00,77.0,72.0,29.56,SE,126,4.0,14.0,86,0.00,,,0.00,,2013-09-28 13:12:00,
2013-09-28 09:22:00,77.0,72.0,29.56,SE,144,5.0,12.0,86,0.00,,,0.00,,2013-09-28 13:22:00,
2013-09-28 09:52:00,77.0,72.0,29.57,SE,142,5.0,10.0,86,0.00,,,0.00,,2013-09-28 13:52:00,
2013-09-28 10:12:00,78.0,73.0,29.58,ESE,114,2.0,13.0,85,0.00,,,0.00,,2013-09-28 14:12:00,
2013-09-28 10:21:00,78.0,73.0,29.58,ESE,109,7.0,14.0,85,0.00,,,0.00,,2013-09-28 14:21:00,
2013-09-28 10:42:00,78.0,73.0,29.59,SSE,159,2.0,9.0,85,0.00,,,0.00,,2013-09-28 14:42:00,
2013-09-28 10:52:00,79.0,74.0,29.59,SSE,153,2.0,9.0,85,0.00,,,0.00,,2013-09-28 14:52:00,
2013-09-28 11:12:00,79.0,74.0,29.60,SSE,152,5.0,12.0,84,0.00,,,0.00,,2013-09-28 15:12:00,
2013-09-28 11:23:00,80.0,74.0,29.60,SSE,156,6.0,11.0,83,0.00,,,0.00,,2013-09-28 15:23:00,
2013-09-28 11:44:00,80.0,74.0,29.61,SE,128,5.0,10.0,82,0.00,,,0.00,,2013-09-28 15:44:00,
2013-09-28 11:54:00,80.0,74.0,29.61,East,99,4.0,10.0,82,0.00,,,0.00,,2013-09-28 15:54:00,
2013-09-28 12:14:00,80.0,74.0,29.60,SSE,152,2.0,9.0,81,0.00,,,0.00,,2013-09-28 16:14:00,
2013-09-28 12:24:00,81.0,74.0,29.61,SE,140,3.0,14.0,79,0.00,,,0.00,,2013-09-28 16:24:00,
2013-09-28 12:43:00,82.0,74.0,29.60,SSE,149,5.0,11.0,78,0.00,,,0.00,,2013-09-28 16:43:00,
2013-09-28 12:54:00,82.0,74.0,29.60,SE,126,6.0,11.0,78,0.00,,,0.00,,2013-09-28 16:54:00,
2013-09-28 13:03:00,82.0,74.0,29.60,SE,126,6.0,11.0,78,0.00,,,0.00,,2013-09-28 17:03:00,
2013-09-28 13:13:00,82.0,74.0,29.60,SE,126,6.0,11.0,78,0.00,,,0.00,,2013-09-28 17:13:00,
2013-09-28 13:23:00,83.0,74.0,29.60,SSE,162,6.0,13.0,75,0.00,,,0.00,,2013-09-28 17:23:00,
2013-09-28 13:43:00,83.0,74.0,29.60,SE,141,4.0,13.0,74,0.00,,,0.00,,2013-09-28 17:43:00,
2013-09-28 13:52:00,83.0,74.0,29.59,South,185,2.0,9.0,75,0.00,,,0.00,,2013-09-28 17:52:00,
2013-09-28 14:12:00,82.0,76.0,29.58,SSW,205,1.0,8.0,81,0.00,,,0.00,,2013-09-28 18:12:00,
2013-09-28 14:22:00,81.0,76.0,29.58,SSE,155,2.0,11.0,85,0.01,,,0.01,,2013-09-28 18:22:00,
2013-09-28 14:42:00,81.0,76.0,29.57,SE,132,2.0,8.0,85,0.01,,,0.01,,2013-09-28 18:42:00,
2013-09-28 14:52:00,83.0,77.0,29.56,SW,214,3.0,8.0,83,0.01,,,0.01,,2013-09-28 18:52:00,
2013-09-28 15:11:00,84.0,74.0,29.56,SW,217,1.0,10.0,73,0.01,,,0.01,,2013-09-28 19:11:00,
2013-09-28 15:22:00,79.0,72.0,29.57,North,355,1.0,8.0,78,0.00,,,0.01,,2013-09-28 19:22:00,
2013-09-28 15:42:00,77.0,72.0,29.59,NW,318,5.0,10.0,84,0.06,,,0.07,,2013-09-28 19:42:00,
2013-09-28 15:52:00,74.0,71.0,29.58,NW,321,2.0,8.0,91,0.28,,,0.28,,2013-09-28 19:52:00,
2013-09-28 16:12:00,73.0,71.0,29.58,NNW,333,0.0,3.0,93,0.28,,,0.28,,2013-09-28 20:12:00,
2013-09-28 16:22:00,75.0,73.0,29.57,WNW,300,2.0,10.0,93,0.28,,,0.28,,2013-09-28 20:22:00,
2013-09-28 16:43:00,75.0,72.0,29.58,WSW,247,0.0,7.0,91,0.18,,,0.28,,2013-09-28 20:43:00,
2013-09-28 16:53:00,74.0,71.0,29.59,WNW,291,0.0,7.0,91,0.00,,,0.28,,2013-09-28 20:53:00,
2013-09-28 17:12:00,74.0,71.0,29.59,WSW,252,1.0,5.0,91,0.00,,,0.28,,2013-09-28 21:12:00,
2013-09-28 17:23:00,73.0,70.0,29.61,West,278,0.0,3.0,91,0.04,,,0.33,,2013-09-28 21:23:00,
2013-09-28 17:44:00,73.0,71.0,29.60,West,278,0.0,2.0,93,0.08,,,0.37,,2013-09-28 21:44:00,
2013-09-28 17:55:00,73.0,71.0,29.60,West,278,0.0,1.0,94,0.08,,,0.37,,2013-09-28 21:55:00,
2013-09-28 18:13:00,72.0,70.0,29.60,WSW,256,0.0,3.0,94,0.12,,,0.41,,2013-09-28 22:13:00,
2013-09-28 18:23:00,72.0,70.0,29.58,NW,321,0.0,1.0,94,0.09,,,0.42,,2013-09-28 22:23:00,
2013-09-28 18:43:00,72.0,70.0,29.56,North,360,0.0,3.0,95,0.06,,,0.43,,2013-09-28 22:43:00,
2013-09-28 18:54:00,73.0,71.0,29.57,NNW,342,2.0,5.0,95,0.08,,,0.45,,2013-09-28 22:54:00,
2013-09-28 19:12:00,74.0,72.0,29.55,NNW,347,1.0,7.0,93,0.04,,,0.45,,2013-09-28 23:12:00,
2013-09-28 19:22:00,74.0,72.0,29.58,NW,325,2.0,7.0,92,0.03,,,0.45,,2013-09-28 23:22:00,
2013-09-28 19:43:00,73.0,70.0,29.60,NNW,347,0.0,6.0,91,0.02,,,0.45,,2013-09-28 23:43:00,
2013-09-28 19:53:00,72.0,69.0,29.60,NW,311,3.0,8.0,90,0.00,,,0.45,,2013-09-28 23:53:00,
2013-09-28 20:11:00,72.0,69.0,29.62,NW,325,2.0,7.0,90,0.00,,,0.45,,2013-09-29 00:11:00,
2013-09-28 20:22:00,71.0,68.0,29.62,NNW,330,1.0,5.0,89,0.00,,,0.45,,2013-09-29 00:22:00,
2013-09-28 20:43:00,71.0,68.0,29.64,NNW,333,1.0,7.0,89,0.00,,,0.45,,2013-09-29 00:43:00,
2013-09-28 20:52:00,70.0,67.0,29.65,NNW,335,1.0,5.0,89,0.00,,,0.45,,2013-09-29 00:52:00,
2013-09-28 21:12:00,70.0,67.0,29.65,NW,320,1.0,9.0,89,0.00,,,0.45,,2013-09-29 01:12:00,
2013-09-28 21:22:00,70.0,66.0,29.66,WNW,292,1.0,11.0,88,0.00,,,0.45,,2013-09-29 01:22:00,
2013-09-28 21:43:00,69.0,65.0,29.66,NNW,346,2.0,6.0,88,0.00,,,0.45,,2013-09-29 01:43:00,
2013-09-28 21:52:00,69.0,65.0,29.66,NNW,334,3.0,9.0,88,0.00,,,0.45,,2013-09-29 01:52:00,
2013-09-28 22:12:00,68.0,64.0,29.67,NW,312,0.0,8.0,88,0.00,,,0.45,,2013-09-29 02:12:00,
2013-09-28 22:22:00,68.0,64.0,29.68,NNW,342,1.0,8.0,88,0.00,,,0.45,,2013-09-29 02:22:00,
2013-09-28 22:43:00,68.0,64.0,29.68,WSW,238,1.0,7.0,88,0.00,,,0.45,,2013-09-29 02:43:00,
2013-09-28 22:53:00,67.0,63.0,29.68,NNW,340,3.0,9.0,88,0.00,,,0.45,,2013-09-29 02:53:00,
2013-09-28 23:12:00,67.0,63.0,29.68,WSW,254,1.0,8.0,88,0.00,,,0.45,,2013-09-29 03:12:00,
2013-09-28 23:23:00,67.0,63.0,29.69,North,355,2.0,8.0,88,0.00,,,0.45,,2013-09-29 03:23:00,
2013-09-28 23:55:00,67.0,63.0,29.70,WNW,285,0.0,7.0,88,0.00,,,0.45,,2013-09-29 03:55:00,